map of SMA home
SMA - Airport
Location
City:  Santa Maria, Região Autónoma dos Açores (Azores), Portugal
ICAO:LPAZ
IATA:SMA

Details
Type:Airport (Aerodrome, Airfield)
Use:Public/Civil, International (customs port of entry)
Latitude:36°58'17"N (36.971390)
Longitude:25°10'14"W (-25.170638)
Datum:WGS 1984
Elevation:308 ft (94 m)
Variation:8.07°W (WMM2015 magnetic declination)
0.14° annual change
Runways:3
Longest:10000 × 197 ft (3048 × 60 m), paved

Time
Time Zone:UTC-1 (DST+0)
Local Time:

Weather
METAR:LPAZ 221730Z 01010KT 9999 SCT028 BKN050 17/09 Q1023
TAF:LPAZ 221700Z 2218/2324 36012KT 9999 FEW030
TEMPO 2218/2324 SCT025 BKN045
BECMG 2312/2314 31010KT

Related Locations
Nearby:
Farthest:YJBY: 12177 mi / 19597 km
Jervis Bay, NSW, AU

Find:

   beyond  
but within

Other Information
Maps:
NOTAMs:
Links:
Sources:

  
flag of Portugal
flag of Região Autónoma dos Açores (Azores)
  

Sectional Chart

Flight Planning
at skyvector.com

Satellite Image

Google Maps Satellite view

 

Copyright © 2004-2018 Karl L. Swartz. All rights reserved.
The Great Circle Mapper name and logo are trademarks of the Great Circle Mapper.
All other trademarks mentioned herein belong to their respective owners.
Please see credits for attibutions and further copyright information.

  Follow gcmap on Facebook Follow gcmap on Twitter Follow gcmap on Google+ GCmap on LinkedIn

hCard Microformat

Geo Microformat